EN

Hourly Weather Torbeevka

Today, 7 May, Friday

Time Temperature Precipitation Wind Pressure Humidity
00:00 +7°C° 0.6 mm 2 mps 736 mmHg 91%
01:00 +7°C° 0.1 mm 2 mps 736 mmHg 91%
02:00 +7°C° 0.1 mm 2 mps 737 mmHg 91%
03:00 +7°C° 0.1 mm 3 mps 737 mmHg 91%
04:00 +7°C° 0 mm 3 mps 737 mmHg 90%
05:00 +5°C° 0 mm 3 mps 737 mmHg 89%
06:00 +5°C° 0 mm 3 mps 738 mmHg 89%
07:00 +7°C° 0 mm 3 mps 738 mmHg 79%
08:00 +7°C° 0 mm 4 mps 738 mmHg 70%
09:00 +8°C° 0 mm 5 mps 739 mmHg 61%
10:00 +9°C° 0 mm 5 mps 739 mmHg 56%
11:00 +10°C° 0 mm 5 mps 739 mmHg 50%
12:00 +12°C° 0 mm 5 mps 740 mmHg 45%
13:00 +13°C° 0 mm 4 mps 740 mmHg 43%
14:00 +13°C° 0 mm 4 mps 740 mmHg 40%
15:00 +14°C° 0 mm 4 mps 740 mmHg 38%
16:00 +13°C° 0 mm 4 mps 740 mmHg 43%
17:00 +13°C° 0 mm 3 mps 740 mmHg 47%
18:00 +13°C° 0 mm 3 mps 739 mmHg 52%
19:00 +11°C° 0 mm 3 mps 739 mmHg 56%
20:00 +10°C° 0 mm 3 mps 739 mmHg 59%
21:00 +9°C° 0 mm 3 mps 739 mmHg 63%
22:00 +8°C° 0 mm 4 mps 739 mmHg 63%
23:00 +7°C° 0 mm 4 mps 739 mmHg 63%

Tomorrow, 8 May, Saturday

Time Temperature Precipitation Wind Pressure Humidity
00:00 +7°C° 0 mm 5 mps 739 mmHg 63%
01:00 +7°C° 0 mm 6 mps 738 mmHg 63%
02:00 +7°C° 0 mm 6 mps 738 mmHg 63%
03:00 +8°C° 0 mm 7 mps 737 mmHg 62%
04:00 +6°C° 0.3 mm 7 mps 737 mmHg 69%
05:00 +6°C° 0.3 mm 8 mps 736 mmHg 76%
06:00 +6°C° 0.3 mm 8 mps 736 mmHg 82%
07:00 +6°C° 1.8 mm 8 mps 735 mmHg 85%
08:00 +6°C° 1.8 mm 9 mps 735 mmHg 87%
09:00 +6°C° 1.8 mm 9 mps 734 mmHg 89%
10:00 +6°C° 2 mm 9 mps 734 mmHg 90%
11:00 +6°C° 2 mm 9 mps 733 mmHg 92%
12:00 +7°C° 2 mm 9 mps 733 mmHg 93%
13:00 +7°C° 1.1 mm 8 mps 732 mmHg 93%
14:00 +7°C° 1.1 mm 8 mps 732 mmHg 94%
15:00 +9°C° 1.1 mm 7 mps 732 mmHg 94%
16:00 +9°C° 0.1 mm 7 mps 732 mmHg 92%
17:00 +9°C° 0.1 mm 6 mps 733 mmHg 90%
18:00 +9°C° 0.1 mm 6 mps 733 mmHg 88%
19:00 +8°C° 0 mm 6 mps 733 mmHg 87%
20:00 +7°C° 0 mm 6 mps 734 mmHg 86%
21:00 +7°C° 0 mm 6 mps 734 mmHg 85%
22:00 +5°C° 0 mm 6 mps 735 mmHg 86%
23:00 +4°C° 0 mm 6 mps 735 mmHg 87%

Day after tomorrow, 9 May, Sunday

Time Temperature Precipitation Wind Pressure Humidity
00:00 +4°C° 0 mm 6 mps 736 mmHg 89%
01:00 +3°C° 0 mm 6 mps 737 mmHg 86%
02:00 +3°C° 0 mm 6 mps 737 mmHg 82%
03:00 +3°C° 0 mm 6 mps 738 mmHg 79%
04:00 +2°C° 0 mm 5 mps 739 mmHg 81%
05:00 +2°C° 0 mm 5 mps 739 mmHg 83%
06:00 +3°C° 0 mm 4 mps 740 mmHg 85%
07:00 +3°C° 0 mm 5 mps 740 mmHg 81%
08:00 +3°C° 0 mm 5 mps 741 mmHg 76%
09:00 +5°C° 0 mm 5 mps 741 mmHg 72%
10:00 +5°C° 0 mm 6 mps 742 mmHg 68%
11:00 +7°C° 0 mm 6 mps 742 mmHg 64%
12:00 +7°C° 0 mm 6 mps 743 mmHg 60%
13:00 +8°C° 0 mm 6 mps 743 mmHg 59%
14:00 +8°C° 0 mm 6 mps 744 mmHg 57%
15:00 +8°C° 0 mm 6 mps 744 mmHg 56%
16:00 +8°C° 0 mm 5 mps 745 mmHg 57%
17:00 +8°C° 0 mm 5 mps 745 mmHg 58%
18:00 +8°C° 0 mm 5 mps 745 mmHg 59%
19:00 +7°C° 0 mm 4 mps 746 mmHg 64%
20:00 +7°C° 0 mm 3 mps 746 mmHg 69%
21:00 +5°C° 0 mm 2 mps 747 mmHg 74%
22:00 +5°C° 0 mm 2 mps 747 mmHg 75%
23:00 +5°C° 0 mm 2 mps 748 mmHg 76%

10 May, Monday

Time Temperature Precipitation Wind Pressure Humidity
00:00 +4°C° 0 mm 2 mps 748 mmHg 76%
01:00 +4°C° 0 mm 2 mps 749 mmHg 76%
02:00 +3°C° 0 mm 2 mps 749 mmHg 76%
03:00 +2°C° 0 mm 3 mps 750 mmHg 76%
04:00 +3°C° 0 mm 2 mps 750 mmHg 76%
05:00 +3°C° 0 mm 2 mps 750 mmHg 76%
06:00 +4°C° 0 mm 2 mps 751 mmHg 76%
07:00 +6°C° 0 mm 2 mps 751 mmHg 69%
08:00 +8°C° 0 mm 2 mps 751 mmHg 63%
09:00 +10°C° 0 mm 2 mps 752 mmHg 56%
10:00 +12°C° 0 mm 2 mps 752 mmHg 52%
11:00 +13°C° 0 mm 2 mps 752 mmHg 48%
12:00 +14°C° 0 mm 2 mps 752 mmHg 45%
13:00 +14°C° 0 mm 2 mps 752 mmHg 44%
14:00 +15°C° 0 mm 2 mps 752 mmHg 43%
15:00 +15°C° 0 mm 2 mps 752 mmHg 43%
16:00 +15°C° 0 mm 2 mps 752 mmHg 46%
17:00 +15°C° 0 mm 2 mps 752 mmHg 50%
18:00 +15°C° 0 mm 2 mps 752 mmHg 53%
19:00 +13°C° 0 mm 2 mps 752 mmHg 58%
20:00 +12°C° 0 mm 2 mps 752 mmHg 62%
21:00 +9°C° 0 mm 2 mps 752 mmHg 66%
22:00 +9°C° 0 mm 2 mps 752 mmHg 67%
23:00 +8°C° 0 mm 2 mps 752 mmHg 68%

11 May, Tuesday

Time Temperature Precipitation Wind Pressure Humidity
00:00 +8°C° 0 mm 2 mps 752 mmHg 69%
01:00 +7°C° 0 mm 2 mps 752 mmHg 70%
02:00 +7°C° 0 mm 2 mps 752 mmHg 72%
03:00 +7°C° 0 mm 1 mps 752 mmHg 73%
04:00 +6°C° 0 mm 2 mps 752 mmHg 74%
05:00 +7°C° 0 mm 2 mps 752 mmHg 75%
06:00 +7°C° 0 mm 2 mps 753 mmHg 76%
07:00 +9°C° 0 mm 2 mps 753 mmHg 70%
08:00 +10°C° 0 mm 3 mps 753 mmHg 64%
09:00 +12°C° 0 mm 3 mps 753 mmHg 58%
10:00 +13°C° 0 mm 4 mps 753 mmHg 55%
11:00 +14°C° 0 mm 4 mps 752 mmHg 52%
12:00 +15°C° 0 mm 5 mps 752 mmHg 49%
13:00 +16°C° 0 mm 5 mps 752 mmHg 48%
14:00 +16°C° 0 mm 5 mps 751 mmHg 48%
15:00 +17°C° 0 mm 5 mps 751 mmHg 47%
16:00 +17°C° 0 mm 4 mps 751 mmHg 52%
17:00 +17°C° 0 mm 4 mps 751 mmHg 56%
18:00 +17°C° 0 mm 4 mps 751 mmHg 60%
19:00 +14°C° 0 mm 4 mps 750 mmHg 66%
20:00 +12°C° 0 mm 3 mps 750 mmHg 72%
21:00 +11°C° 0 mm 3 mps 750 mmHg 78%
22:00 +10°C° 0 mm 3 mps 750 mmHg 79%
23:00 +10°C° 0 mm 3 mps 750 mmHg 81%

12 May, Wednesday

Time Temperature Precipitation Wind Pressure Humidity
00:00 +9°C° 0 mm 3 mps 750 mmHg 82%
01:00 +9°C° 0 mm 3 mps 750 mmHg 83%
02:00 +9°C° 0 mm 3 mps 750 mmHg 83%
03:00 +8°C° 0 mm 3 mps 749 mmHg 84%
04:00 +8°C° 0 mm 3 mps 749 mmHg 83%
05:00 +9°C° 0 mm 3 mps 749 mmHg 83%
06:00 +9°C° 0 mm 3 mps 749 mmHg 83%
07:00 +10°C° 0 mm 4 mps 749 mmHg 79%
08:00 +12°C° 0 mm 4 mps 749 mmHg 76%
09:00 +13°C° 0 mm 4 mps 749 mmHg 72%
10:00 +14°C° 0 mm 5 mps 749 mmHg 70%
11:00 +16°C° 0 mm 5 mps 749 mmHg 68%
12:00 +17°C° 0 mm 5 mps 749 mmHg 67%
13:00 +17°C° 0 mm 5 mps 749 mmHg 68%
14:00 +18°C° 0 mm 4 mps 748 mmHg 70%
15:00 +18°C° 0 mm 4 mps 748 mmHg 72%
16:00 +18°C° 0 mm 4 mps 748 mmHg 74%
17:00 +18°C° 0 mm 4 mps 747 mmHg 75%
18:00 +18°C° 0 mm 4 mps 747 mmHg 77%
19:00 +17°C° 0 mm 4 mps 747 mmHg 80%
20:00 +15°C° 0 mm 4 mps 747 mmHg 84%
21:00 +14°C° 0 mm 4 mps 746 mmHg 88%
22:00 +14°C° 0 mm 4 mps 746 mmHg 87%
23:00 +13°C° 0 mm 4 mps 746 mmHg 87%
Show more

We Need Your Consent

Meteoprog and our Service Providers may store and access personal data such as cookies, device identifiers or other similar technologies on your device and process such data to personalise content and ads, as well as provide social media features and to analyse the traffic.

  • Store and/or access information on your device

    Cookies, device identifiers or other information can be stored or accessed on your device for the purposes indicated above.

  • Personalised ads and content, ad and content measurement, audience insights, and products development

    Ads and content can be personalised based on a profile. More data can be added to better personalise ads and content. Ad and content performance can be measured. Insights about the audience who saw the ads and content can be derived. Such data can be used to develop or improve user’s experience, systems and software.

By clicking ‘I Agree’ you will allow the use of indicated cookies, device identifiers, web beacons or other similar technologies. Your settings can be changed in the browser on your device.

For certain purposes, legitimate interests may be relied on, rather than consent. You can read more about this in our Privacy and Cookie Policy.